BWA7001 MWCR-TTPP

Flight info

Callsign BWA7001
Flight time 2h 50m
Altitude 41000
Route NALRO2 NALRO UG633 OTEKO UR640 FROST UG633 SIA UA511 VODIN A511 SILVA UA511 GUTIM UL337 POS
Aircraft B38M/M-MSDE3FGHIRWYLB1/HB1

Departure

Time 2026-04-21 21:14
Airport Owen Roberts International Airport (MWCR)

Arrival

Time 2026-04-22 00:05
Airport Piarco International Airport (TTPP)
Time Latitude Longitude Altitude Speed Heading
2026-04-21 20:49 19.29551 -81.35616 21 ft 0 kts 345°
2026-04-21 21:04 19.29539 -81.35613 21 ft 4 kts 345°
2026-04-21 21:04 19.29519 -81.35607 21 ft 4 kts 345°
2026-04-21 21:04 19.29494 -81.35603 21 ft 4 kts 14°
2026-04-21 21:05 19.29478 -81.35616 21 ft 4 kts 64°
2026-04-21 21:05 19.29472 -81.35637 21 ft 3 kts 75°
2026-04-21 21:05 19.29465 -81.35665 24 ft 4 kts 75°
2026-04-21 21:05 19.29463 -81.35672 21 ft 0 kts 75°
2026-04-21 21:10 19.29466 -81.35664 21 ft 4 kts 75°
2026-04-21 21:10 19.29468 -81.35599 23 ft 13 kts 126°
2026-04-21 21:11 19.29347 -81.35562 23 ft 17 kts 200°
2026-04-21 21:11 19.29302 -81.35680 22 ft 20 kts 255°
2026-04-21 21:11 19.29258 -81.35864 19 ft 32 kts 257°
2026-04-21 21:11 19.29197 -81.36125 23 ft 39 kts 256°
2026-04-21 21:12 19.29136 -81.36391 22 ft 38 kts 255°
2026-04-21 21:12 19.29073 -81.36659 19 ft 35 kts 256°
2026-04-21 21:12 19.29027 -81.36854 20 ft 23 kts 261°
2026-04-21 21:12 19.29075 -81.36949 22 ft 13 kts 271°
2026-04-21 21:13 19.29066 -81.36986 21 ft 1 kts 222°
2026-04-21 21:13 19.29040 -81.36991 21 ft 9 kts 175°
2026-04-21 21:13 19.29008 -81.36929 20 ft 0 kts 78°
2026-04-21 21:14 19.29072 -81.36655 20 ft 89 kts 76°
2026-04-21 21:14 19.29291 -81.35713 101 ft 161 kts 79°
2026-04-21 21:14 19.29536 -81.34536 1226 ft 157 kts 72°
2026-04-21 21:14 19.29806 -81.33434 2300 ft 160 kts 72°
2026-04-21 21:15 19.29870 -81.32177 2816 ft 186 kts 98°
2026-04-21 21:15 19.29254 -81.30885 3320 ft 214 kts 129°
2026-04-21 21:15 19.28170 -81.29667 3772 ft 240 kts 127°
2026-04-21 21:15 19.27066 -81.28289 4680 ft 244 kts 127°
2026-04-21 21:16 19.25923 -81.26867 5457 ft 263 kts 128°
2026-04-21 21:16 19.24699 -81.25355 6205 ft 276 kts 128°
2026-04-21 21:16 19.23450 -81.23786 6695 ft 280 kts 123°
2026-04-21 21:16 19.22676 -81.21936 6817 ft 275 kts 98°
2026-04-21 21:17 19.22383 -81.19949 7631 ft 274 kts 98°
2026-04-21 21:17 19.22107 -81.17928 8463 ft 280 kts 90°
2026-04-21 21:17 19.22175 -81.15884 9324 ft 283 kts 84°
2026-04-21 21:17 19.22326 -81.13781 10164 ft 289 kts 84°
2026-04-21 21:18 19.22489 -81.11635 10959 ft 298 kts 84°
2026-04-21 21:18 19.22664 -81.09397 11611 ft 312 kts 84°
2026-04-21 21:18 19.22849 -81.07065 12380 ft 323 kts 84°
2026-04-21 21:18 19.23042 -81.04665 13242 ft 331 kts 84°
2026-04-21 21:19 19.23238 -81.02212 14132 ft 337 kts 84°
2026-04-21 21:19 19.23436 -80.99704 14764 ft 345 kts 84°
2026-04-21 21:19 19.23636 -80.97199 14934 ft 346 kts 84°
2026-04-21 21:19 19.23837 -80.94651 15212 ft 348 kts 84°
2026-04-21 21:20 19.24024 -80.92077 15957 ft 359 kts 88°
2026-04-21 21:20 19.23650 -80.89407 16424 ft 377 kts 108°
2026-04-21 21:20 19.22441 -80.86895 16929 ft 390 kts 123°
2026-04-21 21:20 19.20918 -80.84466 17443 ft 400 kts 124°
2026-04-21 21:21 19.19384 -80.81982 18081 ft 406 kts 119°
2026-04-21 21:21 19.18365 -80.79194 18739 ft 409 kts 104°
2026-04-21 21:21 19.17786 -80.76229 19342 ft 414 kts 100°
2026-04-21 21:21 19.17540 -80.73171 19910 ft 417 kts 84°
2026-04-21 21:22 19.18142 -80.70207 20456 ft 419 kts 68°
2026-04-21 21:22 19.19280 -80.67352 20986 ft 424 kts 64°
2026-04-21 21:22 19.20483 -80.64483 21526 ft 428 kts 64°
2026-04-21 21:22 19.21698 -80.61578 22067 ft 433 kts 64°
2026-04-21 21:23 19.22924 -80.58643 22609 ft 437 kts 64°
2026-04-21 21:23 19.23960 -80.55604 23101 ft 444 kts 76°
2026-04-21 21:23 19.24352 -80.52343 23615 ft 450 kts 83°
2026-04-21 21:23 19.24614 -80.49023 24108 ft 455 kts 84°
2026-04-21 21:24 19.24870 -80.45707 24590 ft 459 kts 84°
2026-04-21 21:24 19.24959 -80.42308 25072 ft 465 kts 92°
2026-04-21 21:24 19.24742 -80.38884 25574 ft 469 kts 94°
2026-04-21 21:24 19.24487 -80.35421 26037 ft 473 kts 94°
2026-04-21 21:25 19.24231 -80.31940 26522 ft 477 kts 94°
2026-04-21 21:25 19.23588 -80.28479 26971 ft 482 kts 110°
2026-04-21 21:25 19.22178 -80.25254 27432 ft 484 kts 117°
2026-04-21 21:25 19.20815 -80.21963 27834 ft 489 kts 114°
2026-04-21 21:26 19.19514 -80.18626 28304 ft 492 kts 113°
2026-04-21 21:26 19.18238 -80.15292 28711 ft 497 kts 113°
2026-04-21 21:26 19.16952 -80.11893 29099 ft 500 kts 113°
2026-04-21 21:26 19.15660 -80.08464 29506 ft 503 kts 113°
2026-04-21 21:27 19.14356 -80.05007 29894 ft 507 kts 113°
2026-04-21 21:27 19.13045 -80.01529 30281 ft 510 kts 113°
2026-04-21 21:27 19.11725 -79.98031 30676 ft 513 kts 113°
2026-04-21 21:27 19.10396 -79.94511 31024 ft 517 kts 113°
2026-04-21 21:28 19.09054 -79.90959 31390 ft 520 kts 113°
2026-04-21 21:28 19.07723 -79.87439 31760 ft 522 kts 113°
2026-04-21 21:28 19.05023 -79.80307 32644 ft 523 kts 113°
2026-04-21 21:29 19.03669 -79.76734 33138 ft 522 kts 113°
2026-04-21 21:29 19.02315 -79.73165 33611 ft 522 kts 113°
2026-04-21 21:29 19.00966 -79.69610 34075 ft 521 kts 113°
2026-04-21 21:29 18.99616 -79.66056 34548 ft 520 kts 113°
2026-04-21 21:30 18.98272 -79.62520 35057 ft 518 kts 113°
2026-04-21 21:30 18.96927 -79.58982 35541 ft 517 kts 113°
2026-04-21 21:30 18.95587 -79.55462 36003 ft 515 kts 114°
2026-04-21 21:30 18.94250 -79.51948 36435 ft 514 kts 114°
2026-04-21 21:31 18.92912 -79.48437 36857 ft 513 kts 114°
2026-04-21 21:31 18.91584 -79.44953 37365 ft 508 kts 114°
2026-04-21 21:31 18.90287 -79.41555 37854 ft 504 kts 114°
2026-04-21 21:31 18.88976 -79.38120 38269 ft 502 kts 114°
2026-04-21 21:32 18.87674 -79.34709 38603 ft 501 kts 114°
2026-04-21 21:32 18.86371 -79.31300 38913 ft 500 kts 114°
2026-04-21 21:32 18.85063 -79.27880 39210 ft 500 kts 114°
2026-04-21 21:32 18.83777 -79.24517 39499 ft 500 kts 114°
2026-04-21 21:33 18.82476 -79.21120 39777 ft 499 kts 114°
2026-04-21 21:33 18.81176 -79.17726 40049 ft 498 kts 114°
2026-04-21 21:33 18.79876 -79.14333 40298 ft 498 kts 114°
2026-04-21 21:33 18.78571 -79.10933 40557 ft 497 kts 114°
2026-04-21 21:34 18.77274 -79.07551 40773 ft 497 kts 114°
2026-04-21 21:34 18.76412 -79.05308 40916 ft 497 kts 114°
2026-04-21 21:34 18.75111 -79.01920 41039 ft 498 kts 114°
2026-04-21 21:35 18.72081 -78.94041 41008 ft 497 kts 114°
2026-04-21 21:35 18.69914 -78.88412 41017 ft 497 kts 114°
2026-04-21 21:36 18.67311 -78.81660 41014 ft 497 kts 114°
2026-04-21 21:36 18.64698 -78.74889 41007 ft 497 kts 114°
2026-04-21 21:37 18.62088 -78.68135 41009 ft 497 kts 114°
2026-04-21 21:37 18.59477 -78.61387 41007 ft 496 kts 114°
2026-04-21 21:38 18.56875 -78.54671 41001 ft 496 kts 114°
2026-04-21 21:38 18.54275 -78.47967 40998 ft 496 kts 114°
2026-04-21 21:39 18.51654 -78.41219 41000 ft 496 kts 114°
2026-04-21 21:39 18.49036 -78.34484 41000 ft 496 kts 114°
2026-04-21 21:40 18.46494 -78.27956 40999 ft 495 kts 114°
2026-04-21 21:40 18.43877 -78.21239 41002 ft 495 kts 114°
2026-04-21 21:41 18.41108 -78.14659 40977 ft 489 kts 126°
2026-04-21 21:41 18.38973 -78.11920 40987 ft 480 kts 141°
2026-04-21 21:41 18.36424 -78.09648 40995 ft 480 kts 145°
2026-04-21 21:42 18.31203 -78.05260 40993 ft 480 kts 145°
2026-04-21 21:42 18.26016 -78.00912 40991 ft 480 kts 145°
2026-04-21 21:43 18.20799 -77.96537 40991 ft 480 kts 145°
2026-04-21 21:43 18.15584 -77.92153 40989 ft 480 kts 143°
2026-04-21 21:44 18.10785 -77.87225 40993 ft 483 kts 137°
2026-04-21 21:44 18.06122 -77.82134 40994 ft 483 kts 138°
2026-04-21 21:45 18.01318 -77.77262 40989 ft 482 kts 140°
2026-04-21 21:45 17.96439 -77.72418 40994 ft 482 kts 140°
2026-04-21 21:46 17.91576 -77.67568 40984 ft 483 kts 136°
2026-04-21 21:46 17.87297 -77.62091 40994 ft 486 kts 130°
2026-04-21 21:46 17.85489 -77.59094 40968 ft 489 kts 115°
2026-04-21 21:47 17.84491 -77.55687 41003 ft 491 kts 104°
2026-04-21 21:47 17.82557 -77.48828 41004 ft 493 kts 110°
2026-04-21 21:48 17.80415 -77.41976 40989 ft 493 kts 110°
2026-04-21 21:48 17.78264 -77.35145 40991 ft 493 kts 110°
2026-04-21 21:49 17.76108 -77.28309 40988 ft 493 kts 110°
2026-04-21 21:49 17.73961 -77.21512 40993 ft 494 kts 110°
2026-04-21 21:50 17.71798 -77.14675 40985 ft 493 kts 110°
2026-04-21 21:50 17.69633 -77.07838 40989 ft 493 kts 110°
2026-04-21 21:51 17.67478 -77.01041 40990 ft 493 kts 110°
2026-04-21 21:51 17.65311 -76.94218 40988 ft 493 kts 110°
2026-04-21 21:52 17.63136 -76.87378 40988 ft 494 kts 110°
2026-04-21 21:52 17.60970 -76.80575 40989 ft 494 kts 110°
2026-04-21 21:53 17.58790 -76.73737 40992 ft 494 kts 110°
2026-04-21 21:53 17.56621 -76.66942 40989 ft 494 kts 110°
2026-04-21 21:54 17.54438 -76.60113 40989 ft 495 kts 110°
2026-04-21 21:54 17.52248 -76.53272 40989 ft 494 kts 110°
2026-04-21 21:55 17.50058 -76.46434 40990 ft 494 kts 111°
2026-04-21 21:55 17.47863 -76.39595 40991 ft 495 kts 111°
2026-04-21 21:56 17.45665 -76.32757 40991 ft 495 kts 111°
2026-04-21 21:56 17.43477 -76.25955 40989 ft 495 kts 111°
2026-04-21 21:57 17.41275 -76.19118 40989 ft 495 kts 111°
2026-04-21 21:57 17.39068 -76.12278 40990 ft 495 kts 111°
2026-04-21 21:58 17.36872 -76.05480 40989 ft 495 kts 111°
2026-04-21 21:58 17.34664 -75.98651 40990 ft 495 kts 111°
2026-04-21 21:59 17.32451 -75.91818 40992 ft 495 kts 111°
2026-04-21 21:59 17.30235 -75.84984 40987 ft 495 kts 111°
2026-04-21 22:00 17.28021 -75.78165 40994 ft 495 kts 111°
2026-04-21 22:00 17.25817 -75.71385 40997 ft 495 kts 111°
2026-04-21 22:01 17.23599 -75.64569 40997 ft 494 kts 111°
2026-04-21 22:01 17.21381 -75.57763 40999 ft 493 kts 111°
2026-04-21 22:02 17.19161 -75.50962 40999 ft 493 kts 111°
2026-04-21 22:02 17.16954 -75.44205 40992 ft 493 kts 111°
2026-04-21 22:03 17.14736 -75.37426 40991 ft 493 kts 111°
2026-04-21 22:03 17.12513 -75.30638 40990 ft 493 kts 111°
2026-04-21 22:04 17.10290 -75.23860 40990 ft 493 kts 111°
2026-04-21 22:04 17.08066 -75.17088 40987 ft 492 kts 111°
2026-04-21 22:05 17.05852 -75.10355 40975 ft 492 kts 111°
2026-04-21 22:05 17.03623 -75.03582 40971 ft 492 kts 111°
2026-04-21 22:06 17.01404 -74.96850 40971 ft 491 kts 111°
2026-04-21 22:06 16.99180 -74.90110 40972 ft 491 kts 111°
2026-04-21 22:07 16.96950 -74.83364 40972 ft 491 kts 111°
2026-04-21 22:07 16.94715 -74.76606 40972 ft 491 kts 111°
2026-04-21 22:08 16.92479 -74.69857 40971 ft 491 kts 111°
2026-04-21 22:08 16.90244 -74.63117 40970 ft 491 kts 111°
2026-04-21 22:09 16.88021 -74.56421 40971 ft 491 kts 111°
2026-04-21 22:09 16.85780 -74.49680 40971 ft 491 kts 111°
2026-04-21 22:10 16.83539 -74.42947 40971 ft 490 kts 111°
2026-04-21 22:10 16.81298 -74.36224 40964 ft 490 kts 111°
2026-04-21 22:11 16.79068 -74.29539 40964 ft 490 kts 111°
2026-04-21 22:11 16.76826 -74.22830 40960 ft 489 kts 111°
2026-04-21 22:12 16.74585 -74.16129 40964 ft 489 kts 111°
2026-04-21 22:12 16.72355 -74.09468 40964 ft 489 kts 111°
2026-04-21 22:13 16.70108 -74.02767 40961 ft 488 kts 112°
2026-04-21 22:13 16.67862 -73.96074 40961 ft 488 kts 112°
2026-04-21 22:14 16.65624 -73.89415 40961 ft 489 kts 112°
2026-04-21 22:14 16.63372 -73.82723 40961 ft 488 kts 112°
2026-04-21 22:15 16.61116 -73.76026 40960 ft 489 kts 112°
2026-04-21 22:15 16.58859 -73.69334 40952 ft 488 kts 112°
2026-04-21 22:16 16.56614 -73.62685 40953 ft 488 kts 112°
2026-04-21 22:16 16.54352 -73.55992 40953 ft 488 kts 112°
2026-04-21 22:17 16.52081 -73.49304 40952 ft 488 kts 114°
2026-04-21 22:17 16.49349 -73.42901 40955 ft 486 kts 117°
2026-04-21 22:18 16.46517 -73.36492 40952 ft 486 kts 117°
2026-04-21 22:18 16.43671 -73.30073 40954 ft 488 kts 117°
2026-04-21 22:19 16.40841 -73.23697 40953 ft 487 kts 117°
2026-04-21 22:19 16.37988 -73.17277 40953 ft 487 kts 117°
2026-04-21 22:20 16.35137 -73.10868 40953 ft 487 kts 117°
2026-04-21 22:20 16.32294 -73.04483 40952 ft 488 kts 118°
2026-04-21 22:21 16.29434 -72.98064 40953 ft 488 kts 118°
2026-04-21 22:21 16.26568 -72.91639 40953 ft 489 kts 118°
2026-04-21 22:22 16.23718 -72.85260 40953 ft 489 kts 118°
2026-04-21 22:22 16.20847 -72.78844 40953 ft 489 kts 118°
2026-04-21 22:23 16.17972 -72.72423 40954 ft 488 kts 118°
2026-04-21 22:23 16.15100 -72.66016 40952 ft 488 kts 118°
2026-04-21 22:24 16.12248 -72.59660 40953 ft 488 kts 118°
2026-04-21 22:24 16.09375 -72.53261 40953 ft 488 kts 118°
2026-04-21 22:25 16.06981 -72.47936 40953 ft 488 kts 118°
2026-04-21 22:25 16.04099 -72.41531 40953 ft 488 kts 118°
2026-04-21 22:26 16.01219 -72.35135 40938 ft 487 kts 118°
2026-04-21 22:26 15.98422 -72.28773 40934 ft 489 kts 111°
2026-04-21 22:27 15.96532 -72.21970 40936 ft 490 kts 108°
2026-04-21 22:27 15.94661 -72.15149 40944 ft 491 kts 108°
2026-04-21 22:28 15.92795 -72.08324 40943 ft 491 kts 108°
2026-04-21 22:28 15.90928 -72.01500 40943 ft 491 kts 108°
2026-04-21 22:29 15.89068 -71.94715 40943 ft 491 kts 108°
2026-04-21 22:29 15.87195 -71.87890 40943 ft 491 kts 108°
2026-04-21 22:30 15.85331 -71.81106 40943 ft 491 kts 108°
2026-04-21 22:30 15.83453 -71.74290 40943 ft 490 kts 108°
2026-04-21 22:31 15.81576 -71.67468 40943 ft 491 kts 108°
2026-04-21 22:31 15.79694 -71.60648 40943 ft 490 kts 108°
2026-04-21 22:32 15.77824 -71.53875 40943 ft 490 kts 108°
2026-04-21 22:32 15.75936 -71.47049 40945 ft 490 kts 108°
2026-04-21 22:33 15.74051 -71.40245 40943 ft 489 kts 108°
2026-04-21 22:33 15.72168 -71.33454 40944 ft 489 kts 108°
2026-04-21 22:34 15.70292 -71.26698 40944 ft 489 kts 108°
2026-04-21 22:34 15.68400 -71.19896 40944 ft 489 kts 108°
2026-04-21 22:35 15.66517 -71.13131 40944 ft 490 kts 108°
2026-04-21 22:35 15.64617 -71.06318 40943 ft 490 kts 108°
2026-04-21 22:36 15.61765 -70.96100 40944 ft 490 kts 108°
2026-04-21 22:36 15.59875 -70.89345 40944 ft 490 kts 108°
2026-04-21 22:37 15.57967 -70.82530 40944 ft 490 kts 108°
2026-04-21 22:37 15.56059 -70.75723 40944 ft 491 kts 108°
2026-04-21 22:38 15.54155 -70.68943 40943 ft 491 kts 108°
2026-04-21 22:38 15.52238 -70.62123 40944 ft 492 kts 108°
2026-04-21 22:39 15.50335 -70.55362 40943 ft 492 kts 108°
2026-04-21 22:39 15.48411 -70.48533 40944 ft 492 kts 108°
2026-04-21 22:40 15.46486 -70.41711 40943 ft 492 kts 108°
2026-04-21 22:40 15.44559 -70.34891 40943 ft 492 kts 108°
2026-04-21 22:41 15.42640 -70.28109 40943 ft 492 kts 108°
2026-04-21 22:41 15.40711 -70.21296 40943 ft 492 kts 108°
2026-04-21 22:42 15.38780 -70.14490 40944 ft 493 kts 108°
2026-04-21 22:42 15.36853 -70.07702 40944 ft 493 kts 108°
2026-04-21 22:43 15.34913 -70.00879 40944 ft 493 kts 108°
2026-04-21 22:43 15.32972 -69.94064 40951 ft 493 kts 108°
2026-04-21 22:44 15.31036 -69.87271 40953 ft 493 kts 108°
2026-04-21 22:44 15.29091 -69.80453 40953 ft 493 kts 108°
2026-04-21 22:45 15.27138 -69.73620 40952 ft 492 kts 109°
2026-04-21 22:45 15.25206 -69.66866 40953 ft 492 kts 109°
2026-04-21 22:46 15.23253 -69.60050 40967 ft 492 kts 109°
2026-04-21 22:46 15.21300 -69.53239 40972 ft 492 kts 109°
2026-04-21 22:47 15.19360 -69.46482 40970 ft 492 kts 109°
2026-04-21 22:47 15.17400 -69.39665 40974 ft 492 kts 109°
2026-04-21 22:48 15.15458 -69.32920 40969 ft 491 kts 109°
2026-04-21 22:48 15.13500 -69.26127 40970 ft 491 kts 109°
2026-04-21 22:49 15.11553 -69.19378 40973 ft 491 kts 109°
2026-04-21 22:49 15.09590 -69.12586 40973 ft 491 kts 109°
2026-04-21 22:50 15.07628 -69.05800 40970 ft 491 kts 109°
2026-04-21 22:50 15.05675 -68.99060 40970 ft 491 kts 109°
2026-04-21 22:51 15.03708 -68.92275 40965 ft 491 kts 109°
2026-04-21 22:51 15.01737 -68.85484 40962 ft 492 kts 109°
2026-04-21 22:52 14.99778 -68.78745 40963 ft 492 kts 109°
2026-04-21 22:52 14.97800 -68.71949 40963 ft 492 kts 109°
2026-04-21 22:53 14.95823 -68.65165 40961 ft 492 kts 109°
2026-04-21 22:53 14.93843 -68.58376 40966 ft 492 kts 109°
2026-04-21 22:54 14.91877 -68.51646 40961 ft 491 kts 109°
2026-04-21 22:54 14.89898 -68.44877 40961 ft 491 kts 109°
2026-04-21 22:55 14.87917 -68.38109 40961 ft 491 kts 109°
2026-04-21 22:55 14.85949 -68.31396 40961 ft 491 kts 109°
2026-04-21 22:56 14.83967 -68.24642 40968 ft 491 kts 109°
2026-04-21 22:56 14.81979 -68.17871 40971 ft 491 kts 109°
2026-04-21 22:57 14.79994 -68.11127 40971 ft 490 kts 109°
2026-04-21 22:57 14.78019 -68.04420 40970 ft 490 kts 109°
2026-04-21 22:58 14.76032 -67.97678 40969 ft 490 kts 109°
2026-04-21 22:58 14.74036 -67.90917 40971 ft 490 kts 109°
2026-04-21 22:59 14.72056 -67.84217 40971 ft 490 kts 109°
2026-04-21 22:59 14.70060 -67.77467 40971 ft 490 kts 109°
2026-04-21 23:00 14.68066 -67.70734 40971 ft 490 kts 109°
2026-04-21 23:00 14.66068 -67.63992 40972 ft 490 kts 109°
2026-04-21 23:01 14.64078 -67.57286 40961 ft 490 kts 109°
2026-04-21 23:01 14.62075 -67.50547 40961 ft 491 kts 109°
2026-04-21 23:02 14.60070 -67.43804 40963 ft 491 kts 109°
2026-04-21 23:02 14.58063 -67.37065 40961 ft 490 kts 109°
2026-04-21 23:03 14.55854 -67.30459 40941 ft 485 kts 122°
2026-04-21 23:03 14.52172 -67.24664 40958 ft 484 kts 127°
2026-04-21 23:04 14.48406 -67.18898 40962 ft 484 kts 127°
2026-04-21 23:04 14.44595 -67.13157 40962 ft 484 kts 128°
2026-04-21 23:05 14.40805 -67.07462 40971 ft 484 kts 128°
2026-04-21 23:05 14.36984 -67.01722 40972 ft 484 kts 128°
2026-04-21 23:06 14.33168 -66.95997 40971 ft 484 kts 128°
2026-04-21 23:06 14.29353 -66.90277 40963 ft 484 kts 128°
2026-04-21 23:07 14.25533 -66.84551 40962 ft 484 kts 128°
2026-04-21 23:07 14.21716 -66.78836 40963 ft 483 kts 128°
2026-04-21 23:08 14.17918 -66.73154 40962 ft 484 kts 128°
2026-04-21 23:08 14.14095 -66.67436 40962 ft 484 kts 128°
2026-04-21 23:09 14.10272 -66.61723 40962 ft 484 kts 128°
2026-04-21 23:09 14.06474 -66.56052 40962 ft 484 kts 128°
2026-04-21 23:10 14.02644 -66.50336 40962 ft 484 kts 128°
2026-04-21 23:10 13.98805 -66.44611 40963 ft 484 kts 128°
2026-04-21 23:11 13.95011 -66.38957 40961 ft 483 kts 128°
2026-04-21 23:11 13.91190 -66.33266 40962 ft 483 kts 128°
2026-04-21 23:12 13.87367 -66.27577 40962 ft 483 kts 128°
2026-04-21 23:12 13.84182 -66.22840 40962 ft 483 kts 128°
2026-04-21 23:13 13.80348 -66.17141 40962 ft 483 kts 128°
2026-04-21 23:13 13.76548 -66.11496 40962 ft 483 kts 128°
2026-04-21 23:14 13.72720 -66.05813 40962 ft 483 kts 128°
2026-04-21 23:14 13.68887 -66.00128 40962 ft 483 kts 128°
2026-04-21 23:15 13.65052 -65.94442 40962 ft 483 kts 128°
2026-04-21 23:15 13.61237 -65.88790 40962 ft 483 kts 128°
2026-04-21 23:16 13.57403 -65.83115 40964 ft 483 kts 128°
2026-04-21 23:16 13.53569 -65.77442 40962 ft 483 kts 128°
2026-04-21 23:17 13.49752 -65.71798 40962 ft 483 kts 128°
2026-04-21 23:17 13.45908 -65.66118 40961 ft 482 kts 128°
2026-04-21 23:18 13.42073 -65.60455 40958 ft 482 kts 128°
2026-04-21 23:18 13.38264 -65.54835 40953 ft 482 kts 128°
2026-04-21 23:19 13.34425 -65.49173 40953 ft 482 kts 128°
2026-04-21 23:19 13.30588 -65.43518 40953 ft 482 kts 128°
2026-04-21 23:20 13.26760 -65.37879 40953 ft 481 kts 128°
2026-04-21 23:20 13.22947 -65.32267 40959 ft 481 kts 128°
2026-04-21 23:21 13.19112 -65.26627 40962 ft 481 kts 128°
2026-04-21 23:21 13.15296 -65.21017 40953 ft 481 kts 128°
2026-04-21 23:22 13.11458 -65.15378 40953 ft 481 kts 128°
2026-04-21 23:22 13.07628 -65.09755 40952 ft 480 kts 128°
2026-04-21 23:23 13.03792 -65.04126 40953 ft 480 kts 128°
2026-04-21 23:23 12.99980 -64.98536 40953 ft 480 kts 128°
2026-04-21 23:24 12.96138 -64.92907 40953 ft 480 kts 128°
2026-04-21 23:24 12.92329 -64.87327 40953 ft 480 kts 128°
2026-04-21 23:25 12.88495 -64.81716 40953 ft 480 kts 128°
2026-04-21 23:25 12.84659 -64.76105 40953 ft 480 kts 128°
2026-04-21 23:26 12.80818 -64.70491 40953 ft 480 kts 128°
2026-04-21 23:26 12.76981 -64.64885 40953 ft 480 kts 128°
2026-04-21 23:27 12.73166 -64.59316 40953 ft 480 kts 128°
2026-04-21 23:27 12.69331 -64.53720 40952 ft 479 kts 128°
2026-04-21 23:28 12.65500 -64.48132 40953 ft 479 kts 128°
2026-04-21 23:28 12.61685 -64.42573 40953 ft 479 kts 128°
2026-04-21 23:29 12.57852 -64.36991 40953 ft 479 kts 128°
2026-04-21 23:29 12.54020 -64.31412 40953 ft 479 kts 128°
2026-04-21 23:30 12.50185 -64.25833 40953 ft 479 kts 128°
2026-04-21 23:30 12.46356 -64.20266 40952 ft 478 kts 128°
2026-04-21 23:31 12.42525 -64.14700 40952 ft 478 kts 128°
2026-04-21 23:31 12.38693 -64.09135 40952 ft 478 kts 128°
2026-04-21 23:32 12.34857 -64.03567 40953 ft 478 kts 128°
2026-04-21 23:32 12.31029 -63.98015 40953 ft 478 kts 128°
2026-04-21 23:33 12.27195 -63.92457 40953 ft 478 kts 128°
2026-04-21 23:33 12.23363 -63.86905 40952 ft 477 kts 128°
2026-04-21 23:34 12.19550 -63.81384 40944 ft 477 kts 128°
2026-04-21 23:34 12.15718 -63.75840 40944 ft 477 kts 128°
2026-04-21 23:35 12.11887 -63.70298 40943 ft 477 kts 128°
2026-04-21 23:35 12.08045 -63.64746 40944 ft 478 kts 128°
2026-04-21 23:36 12.04199 -63.59190 40946 ft 478 kts 128°
2026-04-21 23:36 12.00358 -63.53644 40953 ft 478 kts 128°
2026-04-21 23:37 11.96561 -63.48165 40946 ft 477 kts 128°
2026-04-21 23:37 11.92703 -63.42600 40944 ft 476 kts 128°
2026-04-21 23:38 11.88877 -63.37086 40944 ft 476 kts 128°
2026-04-21 23:38 11.85081 -63.31618 40943 ft 476 kts 128°
2026-04-21 23:39 11.81239 -63.26087 40945 ft 475 kts 128°
2026-04-21 23:39 11.77410 -63.20577 40943 ft 475 kts 128°
2026-04-21 23:40 11.73586 -63.15076 40943 ft 474 kts 128°
2026-04-21 23:40 11.69763 -63.09581 40944 ft 474 kts 128°
2026-04-21 23:41 11.65967 -63.04126 40951 ft 474 kts 128°
2026-04-21 23:41 11.62148 -62.98643 40953 ft 474 kts 128°
2026-04-21 23:42 11.58328 -62.93161 40953 ft 474 kts 128°
2026-04-21 23:42 11.54506 -62.87678 40953 ft 473 kts 128°
2026-04-21 23:43 11.50700 -62.82221 40953 ft 469 kts 128°
2026-04-21 23:43 11.46794 -62.77039 39995 ft 456 kts 131°
2026-04-21 23:44 11.44872 -62.74513 38872 ft 458 kts 131°
2026-04-21 23:44 11.42924 -62.71945 37815 ft 456 kts 131°
2026-04-21 23:44 11.40981 -62.69385 36660 ft 456 kts 131°
2026-04-21 23:44 11.39046 -62.66832 35420 ft 457 kts 131°
2026-04-21 23:45 11.37093 -62.64259 34008 ft 461 kts 130°
2026-04-21 23:45 11.33122 -62.59026 30921 ft 470 kts 130°
2026-04-21 23:45 11.31113 -62.56379 29274 ft 473 kts 130°
2026-04-21 23:46 11.29088 -62.53713 27387 ft 478 kts 129°
2026-04-21 23:46 11.27042 -62.51020 25392 ft 483 kts 129°
2026-04-21 23:46 11.24976 -62.48301 23466 ft 485 kts 128°
2026-04-21 23:46 11.22949 -62.45633 22231 ft 473 kts 128°
2026-04-21 23:47 11.20958 -62.43015 21484 ft 463 kts 128°
2026-04-21 23:47 11.18989 -62.40426 20620 ft 459 kts 128°
2026-04-21 23:47 11.17039 -62.37863 19746 ft 454 kts 128°
2026-04-21 23:47 11.15115 -62.35334 18883 ft 450 kts 128°
2026-04-21 23:48 11.13201 -62.32818 18017 ft 446 kts 128°
2026-04-21 23:48 11.11332 -62.30363 17202 ft 442 kts 128°
2026-04-21 23:48 11.09458 -62.27902 16386 ft 437 kts 128°
2026-04-21 23:48 11.07597 -62.25459 15544 ft 433 kts 128°
2026-04-21 23:49 11.05761 -62.23047 14787 ft 428 kts 128°
2026-04-21 23:49 11.03952 -62.20673 14043 ft 422 kts 128°
2026-04-21 23:49 11.02158 -62.18319 13313 ft 417 kts 128°
2026-04-21 23:49 11.00413 -62.16029 12543 ft 413 kts 128°
2026-04-21 23:50 10.98655 -62.13723 11847 ft 408 kts 128°
2026-04-21 23:50 10.96936 -62.11468 11455 ft 395 kts 128°
2026-04-21 23:50 10.95292 -62.09312 11357 ft 376 kts 128°
2026-04-21 23:50 10.93717 -62.07249 11175 ft 361 kts 128°
2026-04-21 23:51 10.92205 -62.05266 10973 ft 348 kts 128°
2026-04-21 23:51 10.90741 -62.03348 10778 ft 337 kts 128°
2026-04-21 23:51 10.89327 -62.01495 10565 ft 327 kts 128°
2026-04-21 23:51 10.87954 -61.99697 10405 ft 316 kts 128°
2026-04-21 23:52 10.86635 -61.97969 10254 ft 305 kts 128°
2026-04-21 23:52 10.85353 -61.96291 10103 ft 295 kts 128°
2026-04-21 23:52 10.84111 -61.94665 9920 ft 287 kts 128°
2026-04-21 23:52 10.82901 -61.93080 9594 ft 286 kts 128°
2026-04-21 23:53 10.81683 -61.91485 9262 ft 284 kts 128°
2026-04-21 23:53 10.80471 -61.89900 8937 ft 282 kts 128°
2026-04-21 23:53 10.79267 -61.88324 8618 ft 280 kts 127°
2026-04-21 23:53 10.78093 -61.86788 8306 ft 278 kts 127°
2026-04-21 23:54 10.76911 -61.85242 7992 ft 276 kts 127°
2026-04-21 23:54 10.75738 -61.83708 7678 ft 274 kts 127°
2026-04-21 23:54 10.74574 -61.82186 7373 ft 271 kts 127°
2026-04-21 23:54 10.73417 -61.80673 7061 ft 269 kts 127°
2026-04-21 23:55 10.72268 -61.79171 6755 ft 267 kts 127°
2026-04-21 23:55 10.71144 -61.77700 6447 ft 265 kts 127°
2026-04-21 23:55 10.70012 -61.76223 6155 ft 263 kts 127°
2026-04-21 23:55 10.68892 -61.74758 5873 ft 261 kts 127°
2026-04-21 23:56 10.67779 -61.73304 5551 ft 260 kts 127°
2026-04-21 23:56 10.66676 -61.71861 5255 ft 257 kts 127°
2026-04-21 23:56 10.65583 -61.70433 4963 ft 254 kts 126°
2026-04-21 23:56 10.64498 -61.69019 4684 ft 252 kts 126°
2026-04-21 23:57 10.63432 -61.67625 4448 ft 248 kts 126°
2026-04-21 23:57 10.62389 -61.66262 4306 ft 243 kts 126°
2026-04-21 23:57 10.61368 -61.64930 4214 ft 234 kts 126°
2026-04-21 23:57 10.60393 -61.63657 4187 ft 221 kts 126°
2026-04-21 23:58 10.59654 -61.62361 4144 ft 205 kts 101°
2026-04-21 23:58 10.59546 -61.60953 4116 ft 194 kts 90°
2026-04-21 23:58 10.59518 -61.59645 4007 ft 183 kts 89°
2026-04-21 23:58 10.59499 -61.58373 3797 ft 177 kts 89°
2026-04-21 23:59 10.59485 -61.57141 3604 ft 171 kts 88°
2026-04-21 23:59 10.59482 -61.55961 3453 ft 163 kts 88°
2026-04-21 23:59 10.59481 -61.54837 3319 ft 155 kts 88°
2026-04-21 23:59 10.59479 -61.53745 3206 ft 154 kts 88°
2026-04-22 00:00 10.59480 -61.52658 3111 ft 154 kts 88°
2026-04-22 00:00 10.59480 -61.51937 3011 ft 154 kts 88°
2026-04-22 00:00 10.59482 -61.50845 2794 ft 155 kts 88°
2026-04-22 00:00 10.59485 -61.49752 2574 ft 154 kts 89°
2026-04-22 00:01 10.59487 -61.48689 2450 ft 144 kts 88°
2026-04-22 00:01 10.59492 -61.47684 2338 ft 140 kts 89°
2026-04-22 00:01 10.59496 -61.46692 2239 ft 141 kts 89°
2026-04-22 00:01 10.59503 -61.45693 2138 ft 140 kts 90°
2026-04-22 00:02 10.59504 -61.44722 1948 ft 136 kts 90°
2026-04-22 00:02 10.59506 -61.43763 1731 ft 136 kts 90°
2026-04-22 00:02 10.59510 -61.42813 1531 ft 136 kts 90°
2026-04-22 00:02 10.59512 -61.41849 1331 ft 136 kts 91°
2026-04-22 00:03 10.59515 -61.40887 1145 ft 135 kts 91°
2026-04-22 00:03 10.59511 -61.39922 1027 ft 137 kts 91°
2026-04-22 00:03 10.59518 -61.39067 860 ft 132 kts 91°
2026-04-22 00:03 10.59518 -61.38136 659 ft 132 kts 90°
2026-04-22 00:04 10.59520 -61.37212 543 ft 132 kts 90°
2026-04-22 00:04 10.59524 -61.36284 402 ft 130 kts 90°
2026-04-22 00:04 10.59529 -61.35357 275 ft 132 kts 90°
2026-04-22 00:04 10.59535 -61.34450 204 ft 119 kts 90°
2026-04-22 00:05 10.59538 -61.33830 198 ft 54 kts 90°
2026-04-22 00:05 10.59544 -61.33607 194 ft 21 kts 68°
2026-04-22 00:05 10.59602 -61.33495 204 ft 15 kts 48°
2026-04-22 00:05 10.59673 -61.33457 204 ft 11 kts 347°
2026-04-22 00:06 10.59710 -61.33510 200 ft 10 kts 275°
2026-04-22 00:06 10.59711 -61.33594 204 ft 14 kts 272°
2026-04-22 00:06 10.59711 -61.33696 200 ft 11 kts 278°
2026-04-22 00:06 10.59775 -61.33737 200 ft 10 kts
2026-04-22 00:07 10.59833 -61.33764 202 ft 8 kts 295°
2026-04-22 00:07 10.59837 -61.33817 208 ft 6 kts 270°
2026-04-22 00:07 10.59837 -61.33871 201 ft 9 kts 272°
2026-04-22 00:07 10.59876 -61.33913 201 ft 7 kts 340°
2026-04-22 00:08 10.59921 -61.33911 211 ft 5 kts 13°
2026-04-22 00:08 10.59941 -61.33907 201 ft 3 kts 10°
2026-04-22 00:08 10.59950 -61.33905 213 ft 2 kts
2026-04-22 00:08 10.59963 -61.33903 201 ft 0 kts 12°
2026-04-22 00:09 10.59966 -61.33902 201 ft 0 kts 12°